Location: Siratepeler Tepesi
(39.1042°N, 32.0781°E)
Time: 00:56:02
(UTC+00:00)

Okean-O - Pass Details

Date: 11 April 2026
Orbit: 627 x 629 km, 97.9° (Epoch: 13 May)

Event Time Altitude Azimuth Distance (km) Brightness Sun altitude
Exits shadow 18:43:25 60° 18° (NNE) 724 2.8 -25.3°
Drops below altitude 10° 18:47:07 10° 352° (N) 2,015 5.7 -25.8°
Sets 18:49:20 0° 350° (N) 2,926 6.7 -26.2°
